2018-102J (43839 NORAD) Tracking and Keplerian Element Data

This shows tracking and keplerian element data for the satellite.

Feedback or suggestion? Click here.




ElementValue
Catalog43839
Name2018-102J
Epoch Orbit10016
Epoch Day275.20484597
Epoch Year2020
RAAN351.956
Inclination97.5775
Eccentricity0.0017047
Argument of Perigee166.6832
Mean Anonmoly246.3798
Mean Motion15.09636782
Decay Rate1.058E-05
L11 43839U 18102J 20275.20484597 .00001058 00000-0 69544-4 0 9990
L22 43839 97.5775 351.9560 0017047 166.6832 246.3798 15.09636782100163



Live tracking and technical data element details for 2018-102J (NORAD 43839). 2018-102J can be tracked NOW for your location showing map with azimuth and elevation plus other details from your city location.







IsCatalogInMostPopularTable: catalog: 43839, numindb: 374
Update: records affected: 1



GetName: 43839 2018-102J

Hit Count: updated at: Fri, 16 Jan 2026 02:44:58 GMT